,,,PA_Meas_PMT16A,,PR_Meas_QMR101_102,,RH_Meas_QMH101,,SR_Meas_QMS101,,TA_Meas_QMH101,,GenWind,,GenWind,
date,time,status,PA,status,PR,status,RH,status,SR,status,TA,status,DirAvg,status,SpdAvg,
2010-11-26, 00:00:04,VALID,998.446,VALID,0,VALID,93.3637,VALID,0,VALID,22.6069,VALID,92,VALID,0.373047,
2010-11-26, 00:01:04,VALID,998.427,VALID,0,VALID,93.3637,VALID,0,VALID,22.6087,VALID,92,VALID,0,
2010-11-26, 00:02:04,VALID,998.437,VALID,0,VALID,93.3713,VALID,0,VALID,22.5892,VALID,92,VALID,0,
2010-11-26, 00:03:04,VALID,998.438,VALID,0,VALID,93.3637,VALID,0,VALID,22.5501,VALID,92,VALID,0,
2010-11-26, 00:04:04,VALID,998.425,VALID,0,VALID,93.356,VALID,0,VALID,22.5306,VALID,92,VALID,0,
2010-11-26, 00:05:04,VALID,998.433,VALID,0,VALID,93.356,VALID,0,VALID,22.5306,VALID,92,VALID,0,
2010-11-26, 00:06:04,VALID,998.471,VALID,0,VALID,93.3713,VALID,0,VALID,22.5094,VALID,92,VALID,0.538672,
2010-11-26, 00:07:04,VALID,998.468,VALID,0,VALID,93.3866,VALID,0,VALID,22.5111,VALID,92,VALID,0.601172,
2010-11-26, 00:08:04,VALID,998.478,VALID,0,VALID,93.3713,VALID,0,VALID,22.5111,VALID,92,VALID,0.63125,
2010-11-26, 00:09:04,VALID,998.493,VALID,0,VALID,93.3789,VALID,0,VALID,22.5306,VALID,92,VALID,0.610937,
2010-11-26, 00:10:04,VALID,998.505,VALID,0,VALID,93.3789,VALID,0,VALID,22.5289,VALID,92,VALID,0.617188,
2010-11-26, 00:11:04,VALID,998.524,VALID,0,VALID,93.3789,VALID,0,VALID,22.5696,VALID,92,VALID,0.643359,
2010-11-26, 00:12:04,VALID,998.518,VALID,0,VALID,93.3866,VALID,0,VALID,22.5874,VALID,92,VALID,0.482812,
2010-11-26, 00:13:04,VALID,998.498,VALID,0,VALID,93.3942,VALID,0,VALID,22.6087,VALID,92,VALID,0.296875,
2010-11-26, 00:14:04,VALID,998.495,VALID,0,VALID,93.3942,VALID,0,VALID,22.6672,VALID,92,VALID,0.301172,
2010-11-26, 00:15:04,VALID,998.464,VALID,0,VALID,93.4018,VALID,0,VALID,22.6672,VALID,92,VALID,0,
2010-11-26, 00:16:04,VALID,998.455,VALID,0,VALID,93.3866,VALID,0,VALID,22.6264,VALID,92,VALID,0,
2010-11-26, 00:17:04,VALID,998.455,VALID,0,VALID,93.4094,VALID,0.112286,VALID,22.6264,VALID,92,VALID,0,
2010-11-26, 00:18:04,VALID,998.462,VALID,0,VALID,93.4094,VALID,0.112286,VALID,22.6069,VALID,92,VALID,0,
2010-11-26, 00:19:04,VALID,998.435,VALID,0,VALID,93.4171,VALID,0,VALID,22.6087,VALID,92,VALID,0,
2010-11-26, 00:20:04,VALID,998.412,VALID,0,VALID,93.4094,VALID,0,VALID,22.5484,VALID,92,VALID,0,
2010-11-26, 00:21:04,VALID,998.417,VALID,0,VALID,93.4094,VALID,0,VALID,22.5501,VALID,92,VALID,0,
2010-11-26, 00:22:04,VALID,998.432,VALID,0,VALID,93.4323,VALID,0.112286,VALID,22.5696,VALID,92,VALID,0,
2010-11-26, 00:23:04,VALID,998.355,VALID,0,VALID,93.4323,VALID,0,VALID,22.5892,VALID,92,VALID,0,
2010-11-26, 00:24:04,VALID,998.373,VALID,0,VALID,93.4323,VALID,0,VALID,22.5892,VALID,92,VALID,0,
2010-11-26, 00:25:04,VALID,998.337,VALID,0,VALID,93.4171,VALID,0.112286,VALID,22.5892,VALID,92,VALID,0,
2010-11-26, 00:26:04,VALID,998.329,VALID,0,VALID,93.4247,VALID,0,VALID,22.6282,VALID,92,VALID,0,
2010-11-26, 00:27:04,VALID,998.307,VALID,0,VALID,93.4323,VALID,0,VALID,22.6264,VALID,92,VALID,0,
2010-11-26, 00:28:04,VALID,998.295,VALID,0,VALID,93.4247,VALID,0,VALID,22.7045,VALID,92,VALID,0,
2010-11-26, 00:29:04,VALID,998.267,VALID,0,VALID,93.44,VALID,0,VALID,22.7257,VALID,92,VALID,0,
2010-11-26, 00:30:04,VALID,998.253,VALID,0,VALID,93.4247,VALID,0,VALID,22.7257,VALID,92,VALID,0,
2010-11-26, 00:31:04,VALID,998.251,VALID,0,VALID,93.4323,VALID,0.112286,VALID,22.7647,VALID,92,VALID,0,
2010-11-26, 00:32:04,VALID,998.241,VALID,0,VALID,93.4094,VALID,0,VALID,22.7647,VALID,92,VALID,0,
2010-11-26, 00:33:04,VALID,998.22,VALID,0,VALID,93.44,VALID,0.112286,VALID,22.7842,VALID,92,VALID,0,
2010-11-26, 00:34:04,VALID,998.195,VALID,0,VALID,93.4171,VALID,0.112286,VALID,22.7825,VALID,74,VALID,0,
2010-11-26, 00:35:04,VALID,998.185,VALID,0,VALID,93.4018,VALID,0,VALID,22.8037,VALID,67,VALID,0,
2010-11-26, 00:36:04,VALID,998.203,VALID,0,VALID,93.3637,VALID,0,VALID,22.7842,VALID,47,VALID,0.666797,
2010-11-26, 00:37:04,VALID,998.168,VALID,0,VALID,93.3484,VALID,0,VALID,22.7062,VALID,35,VALID,0.857422,
2010-11-26, 00:38:04,VALID,998.156,VALID,0,VALID,93.3408,VALID,0,VALID,22.6477,VALID,35,VALID,0.732422,
2010-11-26, 00:39:04,VALID,998.188,VALID,0,VALID,93.3331,VALID,0,VALID,22.5892,VALID,27,VALID,0.75,
2010-11-26, 00:40:04,VALID,998.215,VALID,0,VALID,93.3026,VALID,0.112286,VALID,22.5501,VALID,27,VALID,0.708203,
2010-11-26, 00:41:04,VALID,998.228,VALID,0,VALID,93.2874,VALID,0,VALID,22.5111,VALID,22,VALID,0.557031,
2010-11-26, 00:42:04,VALID,998.226,VALID,0,VALID,93.2797,VALID,0,VALID,22.4916,VALID,22,VALID,0.521094,
2010-11-26, 00:43:04,VALID,998.22,VALID,0,VALID,93.2416,VALID,0,VALID,22.4916,VALID,22,VALID,0.615234,
2010-11-26, 00:44:04,VALID,998.213,VALID,0,VALID,93.2416,VALID,0,VALID,22.4916,VALID,9,VALID,0.602344,
2010-11-26, 00:45:04,VALID,998.228,VALID,0,VALID,93.2416,VALID,0,VALID,22.5306,VALID,9,VALID,0.523047,
2010-11-26, 00:46:04,VALID,998.194,VALID,0,VALID,93.2263,VALID,0,VALID,22.5501,VALID,9,VALID,0.387109,
2010-11-26, 00:47:04,VALID,998.176,VALID,0,VALID,93.2187,VALID,0,VALID,22.5501,VALID,9,VALID,0.676953,
2010-11-26, 00:48:04,VALID,998.18,VALID,0,VALID,93.2034,VALID,0,VALID,22.5111,VALID,10,VALID,0.767187,
2010-11-26, 00:49:04,VALID,998.146,VALID,0,VALID,93.2034,VALID,0,VALID,22.4916,VALID,10,VALID,0.773828,
2010-11-26, 00:50:04,VALID,998.133,VALID,0,VALID,93.1882,VALID,0,VALID,22.4721,VALID,19,VALID,0.679688,
2010-11-26, 00:51:04,VALID,998.122,VALID,0,VALID,93.1729,VALID,0,VALID,22.4331,VALID,19,VALID,0.584766,
2010-11-26, 00:52:04,VALID,998.135,VALID,0,VALID,93.1577,VALID,0,VALID,22.4136,VALID,19,VALID,0.55,
2010-11-26, 00:53:04,VALID,998.191,VALID,0,VALID,93.15,VALID,0,VALID,22.3941,VALID,19,VALID,0.384766,
2010-11-26, 00:54:04,VALID,998.203,VALID,0,VALID,93.1271,VALID,0,VALID,22.3356,VALID,19,VALID,0.414063,
2010-11-26, 00:55:04,VALID,998.253,VALID,0,VALID,93.1424,VALID,0,VALID,22.3356,VALID,19,VALID,0,
2010-11-26, 00:56:04,VALID,998.208,VALID,0,VALID,93.1271,VALID,0,VALID,22.3356,VALID,19,VALID,0,
2010-11-26, 00:57:04,VALID,998.203,VALID,0,VALID,93.1119,VALID,0,VALID,22.3356,VALID,19,VALID,0,
2010-11-26, 00:58:04,VALID,998.165,VALID,0,VALID,93.1119,VALID,0,VALID,22.3356,VALID,19,VALID,0,
2010-11-26, 00:59:04,VALID,998.123,VALID,0,VALID,93.1271,VALID,0.112286,VALID,22.3551,VALID,19,VALID,0,
2010-11-26, 01:00:04,VALID,998.08,VALID,0,VALID,93.1271,VALID,0.112286,VALID,22.4331,VALID,19,VALID,0,
2010-11-26, 01:01:04,VALID,998.058,VALID,0,VALID,93.1271,VALID,0,VALID,22.4916,VALID,19,VALID,0,
2010-11-26, 01:02:04,VALID,998.02,VALID,0,VALID,93.1577,VALID,0,VALID,22.5306,VALID,26,VALID,0,
2010-11-26, 01:03:04,VALID,998.01,VALID,0,VALID,93.1653,VALID,0,VALID,22.5306,VALID,26,VALID,0,
2010-11-26, 01:04:04,VALID,997.983,VALID,0,VALID,93.1958,VALID,0.112286,VALID,22.5696,VALID,26,VALID,0,
2010-11-26, 01:05:04,VALID,998.002,VALID,0,VALID,93.2263,VALID,0,VALID,22.6477,VALID,120,VALID,0.760547,
2010-11-26, 01:06:04,VALID,997.958,VALID,0,VALID,93.234,VALID,0,VALID,22.6867,VALID,121,VALID,0.764453,
2010-11-26, 01:07:04,VALID,997.95,VALID,0,VALID,93.2187,VALID,0,VALID,22.7469,VALID,121,VALID,0.526953,
2010-11-26, 01:08:04,VALID,997.938,VALID,0,VALID,93.234,VALID,0,VALID,22.7452,VALID,121,VALID,0.330078,
2010-11-26, 01:09:04,VALID,997.942,VALID,0,VALID,93.2416,VALID,0,VALID,22.7452,VALID,121,VALID,0.152734,
2010-11-26, 01:10:04,VALID,997.956,VALID,0,VALID,93.2645,VALID,0,VALID,22.7647,VALID,121,VALID,0.00507812,
2010-11-26, 01:11:04,VALID,997.986,VALID,0,VALID,93.2263,VALID,0,VALID,22.7842,VALID,121,VALID,0,
2010-11-26, 01:12:04,VALID,997.956,VALID,0,VALID,93.234,VALID,0,VALID,22.8037,VALID,121,VALID,0.200391,
2010-11-26, 01:13:04,VALID,997.964,VALID,0,VALID,93.234,VALID,0,VALID,22.8037,VALID,121,VALID,0.00078125,
2010-11-26, 01:14:04,VALID,997.975,VALID,0,VALID,93.2187,VALID,0,VALID,22.7842,VALID,121,VALID,0.385547,
2010-11-26, 01:15:04,VALID,997.959,VALID,0,VALID,93.2187,VALID,0,VALID,22.7842,VALID,121,VALID,0.0539063,
2010-11-26, 01:16:04,VALID,997.936,VALID,0,VALID,93.2111,VALID,0,VALID,22.8037,VALID,121,VALID,0,
2010-11-26, 01:17:04,VALID,997.932,VALID,0,VALID,93.1958,VALID,0,VALID,22.7842,VALID,121,VALID,0,
2010-11-26, 01:18:04,VALID,997.951,VALID,0,VALID,93.1882,VALID,0,VALID,22.7842,VALID,121,VALID,0,
2010-11-26, 01:19:04,VALID,997.936,VALID,0,VALID,93.1577,VALID,0,VALID,22.7647,VALID,121,VALID,0,
2010-11-26, 01:20:04,VALID,997.933,VALID,0,VALID,93.1424,VALID,0,VALID,22.8037,VALID,121,VALID,0,
2010-11-26, 01:21:04,VALID,997.957,VALID,0,VALID,93.1424,VALID,0,VALID,22.8037,VALID,121,VALID,0,
2010-11-26, 01:22:04,VALID,997.946,VALID,0,VALID,93.1119,VALID,0,VALID,22.8623,VALID,111,VALID,0,
2010-11-26, 01:23:04,VALID,997.945,VALID,0,VALID,93.0966,VALID,0,VALID,22.8427,VALID,108,VALID,0,
2010-11-26, 01:24:04,VALID,997.947,VALID,0,VALID,93.0737,VALID,0,VALID,22.8623,VALID,108,VALID,0,
2010-11-26, 01:25:04,VALID,997.907,VALID,0,VALID,93.0432,VALID,0,VALID,22.8818,VALID,108,VALID,0,
2010-11-26, 01:26:04,VALID,997.928,VALID,0,VALID,92.9898,VALID,0,VALID,22.8232,VALID,108,VALID,0,
2010-11-26, 01:27:04,VALID,997.919,VALID,0,VALID,92.9135,VALID,0,VALID,22.7257,VALID,108,VALID,0,
2010-11-26, 01:28:04,VALID,997.874,VALID,0,VALID,92.8067,VALID,0,VALID,22.6477,VALID,108,VALID,0,
2010-11-26, 01:29:04,VALID,997.837,VALID,0,VALID,92.7533,VALID,0,VALID,22.5892,VALID,108,VALID,0,
2010-11-26, 01:30:04,VALID,997.842,VALID,0,VALID,92.6923,VALID,0,VALID,22.5289,VALID,108,VALID,0,
2010-11-26, 01:31:04,VALID,997.794,VALID,0,VALID,92.677,VALID,0,VALID,22.4916,VALID,108,VALID,0,
2010-11-26, 01:32:04,VALID,997.767,VALID,0,VALID,92.6923,VALID,0,VALID,22.5111,VALID,108,VALID,0,
2010-11-26, 01:33:04,VALID,997.753,VALID,0,VALID,92.6999,VALID,0,VALID,22.4916,VALID,108,VALID,0,
2010-11-26, 01:34:04,VALID,997.766,VALID,0,VALID,92.7304,VALID,0,VALID,22.4526,VALID,108,VALID,0,
2010-11-26, 01:35:04,VALID,997.767,VALID,0,VALID,92.7304,VALID,0,VALID,22.4331,VALID,108,VALID,0,
2010-11-26, 01:36:04,VALID,997.777,VALID,0,VALID,92.7609,VALID,0,VALID,22.4526,VALID,107,VALID,0,
2010-11-26, 01:37:04,VALID,997.761,VALID,0,VALID,92.7838,VALID,0,VALID,22.4331,VALID,36,VALID,0,
2010-11-26, 01:38:04,VALID,997.785,VALID,0,VALID,92.8296,VALID,0,VALID,22.4331,VALID,36,VALID,0,
2010-11-26, 01:39:04,VALID,997.786,VALID,0,VALID,92.822,VALID,0,VALID,22.3746,VALID,36,VALID,0,
2010-11-26, 01:40:04,VALID,997.761,VALID,0,VALID,92.883,VALID,0,VALID,22.3746,VALID,36,VALID,0,
2010-11-26, 01:41:04,VALID,997.781,VALID,0,VALID,92.883,VALID,0,VALID,22.3551,VALID,36,VALID,0,
2010-11-26, 01:42:04,VALID,997.799,VALID,0,VALID,92.9364,VALID,0,VALID,22.3356,VALID,36,VALID,0,
2010-11-26, 01:43:04,VALID,997.764,VALID,0,VALID,92.9517,VALID,0,VALID,22.3161,VALID,36,VALID,0,
2010-11-26, 01:44:04,VALID,997.733,VALID,0,VALID,92.9745,VALID,0,VALID,22.2966,VALID,36,VALID,0,
2010-11-26, 01:45:04,VALID,997.734,VALID,0,VALID,92.9898,VALID,0,VALID,22.2966,VALID,36,VALID,0,
2010-11-26, 01:46:04,VALID,997.743,VALID,0,VALID,93.0508,VALID,0,VALID,22.2949,VALID,36,VALID,0,
2010-11-26, 01:47:04,VALID,997.703,VALID,0,VALID,93.0737,VALID,0.112286,VALID,22.3161,VALID,36,VALID,0,
2010-11-26, 01:48:04,VALID,997.709,VALID,0,VALID,93.0814,VALID,0,VALID,22.3144,VALID,36,VALID,0,
2010-11-26, 01:49:04,VALID,997.675,VALID,0,VALID,93.1119,VALID,0,VALID,22.3144,VALID,36,VALID,0,
2010-11-26, 01:50:04,VALID,997.662,VALID,0,VALID,93.1577,VALID,0,VALID,22.3144,VALID,36,VALID,0,
2010-11-26, 01:51:04,VALID,997.615,VALID,0,VALID,93.15,VALID,0,VALID,22.3161,VALID,36,VALID,0,
2010-11-26, 01:52:04,VALID,997.6,VALID,0,VALID,93.1577,VALID,0,VALID,22.2771,VALID,36,VALID,0,
2010-11-26, 01:53:04,VALID,997.611,VALID,0,VALID,93.1805,VALID,0,VALID,22.2576,VALID,36,VALID,0,
2010-11-26, 01:54:04,VALID,997.582,VALID,0,VALID,93.2034,VALID,0,VALID,22.2186,VALID,36,VALID,0,
2010-11-26, 01:55:04,VALID,997.578,VALID,0,VALID,93.2187,VALID,0,VALID,22.199,VALID,36,VALID,0,
2010-11-26, 01:56:04,VALID,997.581,VALID,0,VALID,93.2416,VALID,0,VALID,22.199,VALID,36,VALID,0,
2010-11-26, 01:57:04,VALID,997.566,VALID,0,VALID,93.234,VALID,0,VALID,22.1584,VALID,36,VALID,0,
2010-11-26, 01:58:04,VALID,997.539,VALID,0,VALID,93.2492,VALID,0,VALID,22.1795,VALID,36,VALID,0,
2010-11-26, 01:59:04,VALID,997.537,VALID,0,VALID,93.2568,VALID,0,VALID,22.1389,VALID,36,VALID,0,
2010-11-26, 02:00:04,VALID,997.531,VALID,0,VALID,93.2874,VALID,0,VALID,22.199,VALID,36,VALID,0,
2010-11-26, 02:01:04,VALID,997.52,VALID,0,VALID,93.295,VALID,0,VALID,22.2186,VALID,36,VALID,0,
2010-11-26, 02:02:04,VALID,997.498,VALID,0,VALID,93.3026,VALID,0,VALID,22.1795,VALID,36,VALID,0,
2010-11-26, 02:03:04,VALID,997.469,VALID,0,VALID,93.3255,VALID,0,VALID,22.2186,VALID,35,VALID,0,
2010-11-26, 02:04:04,VALID,997.438,VALID,0,VALID,93.3331,VALID,0,VALID,22.2771,VALID,35,VALID,0,
2010-11-26, 02:05:04,VALID,997.434,VALID,0,VALID,93.356,VALID,0,VALID,22.2771,VALID,35,VALID,0,
2010-11-26, 02:06:04,VALID,997.393,VALID,0,VALID,93.356,VALID,0,VALID,22.2949,VALID,36,VALID,0,
2010-11-26, 02:07:04,VALID,997.413,VALID,0,VALID,93.3789,VALID,0,VALID,22.2364,VALID,36,VALID,0,
2010-11-26, 02:08:04,VALID,997.402,VALID,0,VALID,93.3866,VALID,0,VALID,22.2576,VALID,36,VALID,0,
2010-11-26, 02:09:04,VALID,997.381,VALID,0,VALID,93.4018,VALID,0,VALID,22.2186,VALID,36,VALID,0,
2010-11-26, 02:10:04,VALID,997.375,VALID,0,VALID,93.4094,VALID,0,VALID,22.2186,VALID,36,VALID,0,
2010-11-26, 02:11:04,VALID,997.324,VALID,0,VALID,93.4247,VALID,0,VALID,22.2186,VALID,36,VALID,0,
2010-11-26, 02:12:04,VALID,997.302,VALID,0,VALID,93.4323,VALID,0,VALID,22.2186,VALID,36,VALID,0,
2010-11-26, 02:13:04,VALID,997.259,VALID,0,VALID,93.4476,VALID,0,VALID,22.199,VALID,36,VALID,0,
2010-11-26, 02:14:04,VALID,997.256,VALID,0,VALID,93.4552,VALID,0,VALID,22.199,VALID,36,VALID,0,
2010-11-26, 02:15:04,VALID,997.234,VALID,0,VALID,93.4552,VALID,0,VALID,22.199,VALID,36,VALID,0,
2010-11-26, 02:16:04,VALID,997.227,VALID,0,VALID,93.4857,VALID,0,VALID,22.16,VALID,36,VALID,0,
2010-11-26, 02:17:04,VALID,997.243,VALID,0,VALID,93.4781,VALID,0,VALID,22.1795,VALID,36,VALID,0,
2010-11-26, 02:18:04,VALID,997.242,VALID,0,VALID,93.4857,VALID,0,VALID,22.16,VALID,36,VALID,0,
2010-11-26, 02:19:04,VALID,997.252,VALID,0,VALID,93.501,VALID,0,VALID,22.1795,VALID,36,VALID,0,
2010-11-26, 02:20:04,VALID,997.262,VALID,0,VALID,93.501,VALID,0,VALID,22.1795,VALID,56,VALID,0,
2010-11-26, 02:21:04,VALID,997.268,VALID,0,VALID,93.5163,VALID,0,VALID,22.1795,VALID,59,VALID,1.03594,
2010-11-26, 02:22:04,VALID,997.252,VALID,0,VALID,93.5163,VALID,0,VALID,22.1795,VALID,60,VALID,0.903125,
2010-11-26, 02:23:04,VALID,997.239,VALID,0,VALID,93.5163,VALID,0,VALID,22.16,VALID,69,VALID,0.785937,
2010-11-26, 02:24:04,VALID,997.194,VALID,0,VALID,93.5315,VALID,0,VALID,22.1194,VALID,72,VALID,0.587109,
2010-11-26, 02:25:04,VALID,997.17,VALID,0,VALID,93.5239,VALID,0,VALID,22.121,VALID,72,VALID,0.619531,
2010-11-26, 02:26:04,VALID,997.165,VALID,0,VALID,93.5468,VALID,0,VALID,22.1422,VALID,72,VALID,0.338281,
2010-11-26, 02:27:04,VALID,997.138,VALID,0,VALID,93.5391,VALID,0,VALID,22.1015,VALID,72,VALID,0.210156,
2010-11-26, 02:28:04,VALID,997.144,VALID,0,VALID,93.5544,VALID,0,VALID,22.082,VALID,72,VALID,0.351172,
2010-11-26, 02:29:04,VALID,997.145,VALID,0,VALID,93.5544,VALID,0,VALID,22.082,VALID,72,VALID,0.422266,
2010-11-26, 02:30:04,VALID,997.149,VALID,0,VALID,93.5697,VALID,0,VALID,22.1422,VALID,72,VALID,0.662109,
2010-11-26, 02:31:04,VALID,997.18,VALID,0,VALID,93.5697,VALID,0,VALID,22.16,VALID,86,VALID,0.845312,
2010-11-26, 02:32:04,VALID,997.15,VALID,0,VALID,93.5773,VALID,0,VALID,22.16,VALID,91,VALID,0.927734,
2010-11-26, 02:33:04,VALID,997.143,VALID,0,VALID,93.5926,VALID,0,VALID,22.121,VALID,106,VALID,0.957422,
2010-11-26, 02:34:04,VALID,997.162,VALID,0,VALID,93.5697,VALID,0,VALID,22.1015,VALID,109,VALID,0.845312,
2010-11-26, 02:35:04,VALID,997.139,VALID,0,VALID,93.562,VALID,0,VALID,22.1015,VALID,114,VALID,0.882813,
2010-11-26, 02:36:04,VALID,997.154,VALID,0,VALID,93.6154,VALID,0,VALID,22.121,VALID,114,VALID,0.685156,
2010-11-26, 02:37:04,VALID,997.143,VALID,0,VALID,93.6002,VALID,0,VALID,22.1405,VALID,114,VALID,0.458984,
2010-11-26, 02:38:04,VALID,997.14,VALID,0,VALID,93.6002,VALID,0,VALID,22.1795,VALID,114,VALID,0,
2010-11-26, 02:39:04,VALID,997.112,VALID,0,VALID,93.6078,VALID,0,VALID,22.2202,VALID,114,VALID,0,
2010-11-26, 02:40:04,VALID,997.125,VALID,0,VALID,93.5926,VALID,0,VALID,22.2186,VALID,113,VALID,0,
2010-11-26, 02:41:04,VALID,997.134,VALID,0,VALID,93.6231,VALID,0,VALID,22.2771,VALID,113,VALID,0,
2010-11-26, 02:42:04,VALID,997.127,VALID,0,VALID,93.6154,VALID,0,VALID,22.3373,VALID,113,VALID,0,
2010-11-26, 02:43:04,VALID,997.108,VALID,0,VALID,93.6231,VALID,0,VALID,22.3551,VALID,112,VALID,0,
2010-11-26, 02:44:04,VALID,997.093,VALID,0,VALID,93.5926,VALID,0,VALID,22.3941,VALID,112,VALID,0,
2010-11-26, 02:45:04,VALID,997.072,VALID,0,VALID,93.6002,VALID,0,VALID,22.4543,VALID,97,VALID,0,
2010-11-26, 02:46:04,VALID,997.078,VALID,0,VALID,93.6154,VALID,0,VALID,22.4916,VALID,97,VALID,0,
2010-11-26, 02:47:04,VALID,997.08,VALID,0,VALID,93.6078,VALID,0,VALID,22.5306,VALID,97,VALID,0,
2010-11-26, 02:48:04,VALID,997.077,VALID,0,VALID,93.6231,VALID,0,VALID,22.5111,VALID,97,VALID,0,
2010-11-26, 02:49:04,VALID,997.065,VALID,0,VALID,93.6078,VALID,0,VALID,22.5323,VALID,97,VALID,0,
2010-11-26, 02:50:04,VALID,997.081,VALID,0,VALID,93.6231,VALID,0,VALID,22.4916,VALID,97,VALID,0,
2010-11-26, 02:51:04,VALID,997.081,VALID,0,VALID,93.6154,VALID,0,VALID,22.4526,VALID,97,VALID,0,
2010-11-26, 02:52:04,VALID,997.091,VALID,0,VALID,93.6154,VALID,0,VALID,22.3941,VALID,344,VALID,0,
2010-11-26, 02:53:04,VALID,997.121,VALID,0,VALID,93.6078,VALID,0,VALID,22.3551,VALID,344,VALID,0,
2010-11-26, 02:54:04,VALID,997.097,VALID,0,VALID,93.6078,VALID,0,VALID,22.3356,VALID,344,VALID,0,
2010-11-26, 02:55:04,VALID,997.117,VALID,0,VALID,93.6078,VALID,0,VALID,22.3356,VALID,344,VALID,0,
2010-11-26, 02:56:04,VALID,997.129,VALID,0,VALID,93.6002,VALID,0,VALID,22.3356,VALID,344,VALID,0,
2010-11-26, 02:57:04,VALID,997.112,VALID,0,VALID,93.6154,VALID,0,VALID,22.3746,VALID,344,VALID,0,
2010-11-26, 02:58:04,VALID,997.109,VALID,0,VALID,93.6231,VALID,0,VALID,22.3356,VALID,17,VALID,0,
2010-11-26, 02:59:04,VALID,997.113,VALID,0,VALID,93.6078,VALID,0,VALID,22.2381,VALID,17,VALID,0.883594,
2010-11-26, 03:00:04,VALID,997.114,VALID,0,VALID,93.6078,VALID,0,VALID,22.2007,VALID,17,VALID,0.951953,
2010-11-26, 03:01:04,VALID,997.118,VALID,0,VALID,93.6078,VALID,0,VALID,22.1405,VALID,17,VALID,0.821875,
2010-11-26, 03:02:04,VALID,997.1,VALID,0,VALID,93.5926,VALID,0,VALID,22.121,VALID,17,VALID,0.712891,
2010-11-26, 03:03:04,VALID,997.093,VALID,0,VALID,93.6231,VALID,0,VALID,22.1015,VALID,17,VALID,0.755078,
2010-11-26, 03:04:04,VALID,997.078,VALID,0,VALID,93.5849,VALID,0,VALID,22.1015,VALID,17,VALID,0.822656,
2010-11-26, 03:05:04,VALID,997.087,VALID,0,VALID,93.6154,VALID,0,VALID,22.082,VALID,17,VALID,0.984375,
2010-11-26, 03:06:04,VALID,997.115,VALID,0,VALID,93.5849,VALID,0,VALID,22.0625,VALID,17,VALID,1.14219,
2010-11-26, 03:07:04,VALID,997.117,VALID,0,VALID,93.6002,VALID,0,VALID,22.004,VALID,17,VALID,1.05703,
2010-11-26, 03:08:04,VALID,997.132,VALID,0,VALID,93.5926,VALID,0,VALID,21.9845,VALID,17,VALID,0.999609,
2010-11-26, 03:09:04,VALID,997.114,VALID,0,VALID,93.6078,VALID,0,VALID,21.965,VALID,17,VALID,0.889063,
2010-11-26, 03:10:04,VALID,997.072,VALID,0,VALID,93.5773,VALID,0,VALID,22.0057,VALID,17,VALID,0.629687,
2010-11-26, 03:11:04,VALID,997.103,VALID,0,VALID,93.5926,VALID,0,VALID,21.9845,VALID,17,VALID,0.566406,
2010-11-26, 03:12:04,VALID,997.068,VALID,0,VALID,93.5773,VALID,0,VALID,21.9845,VALID,17,VALID,0.417188,
2010-11-26, 03:13:04,VALID,997.042,VALID,0,VALID,93.5849,VALID,0,VALID,21.9862,VALID,17,VALID,0.444141,
2010-11-26, 03:14:04,VALID,997.029,VALID,0,VALID,93.5926,VALID,0,VALID,21.9455,VALID,17,VALID,0.470703,
2010-11-26, 03:15:04,VALID,997.058,VALID,0,VALID,93.5926,VALID,0,VALID,21.965,VALID,17,VALID,0.532422,
2010-11-26, 03:16:04,VALID,997.117,VALID,0,VALID,93.6002,VALID,0.112286,VALID,22.004,VALID,17,VALID,0.637891,
2010-11-26, 03:17:04,VALID,997.104,VALID,0,VALID,93.5926,VALID,0,VALID,22.043,VALID,17,VALID,0.566016,
2010-11-26, 03:18:04,VALID,997.143,VALID,0,VALID,93.5849,VALID,0,VALID,22.043,VALID,17,VALID,0.492578,
2010-11-26, 03:19:04,VALID,997.166,VALID,0,VALID,93.6002,VALID,0,VALID,22.0642,VALID,17,VALID,0.401172,
2010-11-26, 03:20:04,VALID,997.163,VALID,0,VALID,93.5926,VALID,0,VALID,22.0625,VALID,17,VALID,0.175781,
2010-11-26, 03:21:04,VALID,997.185,VALID,0,VALID,93.6002,VALID,0,VALID,22.1015,VALID,17,VALID,0.167578,
2010-11-26, 03:22:04,VALID,997.214,VALID,0,VALID,93.6154,VALID,0,VALID,22.1015,VALID,17,VALID,0,
2010-11-26, 03:23:04,VALID,997.211,VALID,0,VALID,93.6002,VALID,0,VALID,22.082,VALID,17,VALID,0,
2010-11-26, 03:24:04,VALID,997.203,VALID,0,VALID,93.6078,VALID,0,VALID,22.1015,VALID,17,VALID,0,
2010-11-26, 03:25:04,VALID,997.22,VALID,0,VALID,93.6078,VALID,0,VALID,22.082,VALID,17,VALID,0,
2010-11-26, 03:26:04,VALID,997.207,VALID,0,VALID,93.6231,VALID,0,VALID,22.082,VALID,17,VALID,0.0332031,
2010-11-26, 03:27:04,VALID,997.242,VALID,0,VALID,93.6154,VALID,0,VALID,22.1032,VALID,17,VALID,0.298828,
2010-11-26, 03:28:04,VALID,997.287,VALID,0,VALID,93.6383,VALID,0,VALID,22.082,VALID,17,VALID,0.305859,
2010-11-26, 03:29:04,VALID,997.299,VALID,0,VALID,93.6307,VALID,0,VALID,22.082,VALID,17,VALID,0.103516,
2010-11-26, 03:30:04,VALID,997.32,VALID,0,VALID,93.6002,VALID,0,VALID,22.082,VALID,17,VALID,0,
2010-11-26, 03:31:04,VALID,997.3,VALID,0,VALID,93.6154,VALID,0,VALID,22.0625,VALID,17,VALID,0.00429688,
2010-11-26, 03:32:04,VALID,997.322,VALID,0,VALID,93.646,VALID,0,VALID,22.082,VALID,17,VALID,0.212891,
2010-11-26, 03:33:04,VALID,997.318,VALID,0,VALID,93.6383,VALID,0,VALID,22.082,VALID,17,VALID,0.229297,
2010-11-26, 03:34:04,VALID,997.302,VALID,0,VALID,93.646,VALID,0,VALID,22.121,VALID,17,VALID,0,
2010-11-26, 03:35:04,VALID,997.298,VALID,0,VALID,93.6536,VALID,0,VALID,22.1795,VALID,17,VALID,0,
2010-11-26, 03:36:04,VALID,997.319,VALID,0,VALID,93.6231,VALID,0,VALID,22.2186,VALID,17,VALID,0,
2010-11-26, 03:37:04,VALID,997.313,VALID,0,VALID,93.646,VALID,0,VALID,22.2576,VALID,17,VALID,0,
2010-11-26, 03:38:04,VALID,997.331,VALID,0,VALID,93.646,VALID,0,VALID,22.2966,VALID,17,VALID,0,
2010-11-26, 03:39:04,VALID,997.348,VALID,0,VALID,93.6307,VALID,0,VALID,22.3568,VALID,17,VALID,0,
2010-11-26, 03:40:04,VALID,997.349,VALID,0,VALID,93.6383,VALID,0,VALID,22.3178,VALID,17,VALID,0,
2010-11-26, 03:41:04,VALID,997.385,VALID,0,VALID,93.6383,VALID,0,VALID,22.199,VALID,17,VALID,0,
2010-11-26, 03:42:04,VALID,997.345,VALID,0,VALID,93.6765,VALID,0,VALID,22.16,VALID,17,VALID,0,
2010-11-26, 03:43:04,VALID,997.325,VALID,0,VALID,93.6688,VALID,0,VALID,22.1795,VALID,17,VALID,0,
2010-11-26, 03:44:04,VALID,997.263,VALID,0,VALID,93.6688,VALID,0,VALID,22.2576,VALID,17,VALID,0,
2010-11-26, 03:45:04,VALID,997.281,VALID,0,VALID,93.6841,VALID,0,VALID,22.2966,VALID,17,VALID,0,
2010-11-26, 03:46:04,VALID,997.251,VALID,0,VALID,93.6612,VALID,0,VALID,22.3161,VALID,17,VALID,0,
2010-11-26, 03:47:04,VALID,997.243,VALID,0,VALID,93.646,VALID,0,VALID,22.3161,VALID,17,VALID,0,
2010-11-26, 03:48:04,VALID,997.205,VALID,0,VALID,93.6612,VALID,0,VALID,22.3161,VALID,17,VALID,0,
2010-11-26, 03:49:04,VALID,997.242,VALID,0,VALID,93.6841,VALID,0,VALID,22.2966,VALID,17,VALID,0,
2010-11-26, 03:50:04,VALID,997.231,VALID,0,VALID,93.6917,VALID,0,VALID,22.2966,VALID,17,VALID,0.620313,
2010-11-26, 03:51:04,VALID,997.242,VALID,0,VALID,93.6994,VALID,0,VALID,22.2576,VALID,17,VALID,0.654688,
2010-11-26, 03:52:04,VALID,997.27,VALID,0,VALID,93.6917,VALID,0,VALID,22.2576,VALID,17,VALID,0.538672,
2010-11-26, 03:53:04,VALID,997.273,VALID,0,VALID,93.7146,VALID,0,VALID,22.2186,VALID,17,VALID,0.501953,
2010-11-26, 03:54:04,VALID,997.257,VALID,0,VALID,93.707,VALID,0,VALID,22.1015,VALID,17,VALID,0.217969,
2010-11-26, 03:55:04,VALID,997.255,VALID,0,VALID,93.707,VALID,0,VALID,22.004,VALID,17,VALID,0,